Altus AFB, OK

8:25 PM CDT on July 26, 2017 (GMT -0500)
Altus Air Force Base

Weather History for KLTS - December, 2013

Change the Weather History Date:

Monday, December 30, 2013

  Actual Average Record
Temperature  
Mean Temperature 28 °F -  
Max Temperature 44 °F 49 °F 73 °F (1996)
Min Temperature 13 °F 25 °F 13 °F (2013)
Degree Days  
Heating Degree Days 36    
Moisture  
Dew Point 17 °F    
Average Humidity 68    
Maximum Humidity 93    
Minimum Humidity 40    
Precipitation  
Precipitation 0.00 in - - ()
Sea Level Pressure  
Sea Level Pressure 30.34 in    
Wind  
Wind Speed 3 mph (West)    
Max Wind Speed 8 mph    
Max Gust Speed -    
Visibility 10 miles    
Events      
Averages and records for this station are not official NWS values.
T = Trace of Precipitation, MM = Missing Value Source: NWS Daily Summary

Daily Weather History Graph

Daily Weather History Graph

Search for Another Location

Airport or City:

Trip Planner

Search our weather history database for the weather conditions in past years. The results will help you decide how hot, cold, wet, or windy it might be!

Date:

Astronomy

Dec. 30, 2013 Rise Set
Actual Time 7:43 AM CST 5:35 PM CST
Civil Twilight 7:15 AM CST 6:03 PM CST
Nautical Twilight 6:44 AM CST 6:35 PM CST
Astronomical Twilight 6:13 AM CST 7:06 PM CST
Moon 5:37 AM CST (12/30) 4:08 PM CST (12/30)
Length of Visible Light 10h 47m
Length of Day
9h 52m
Waning Crescent, 4% of the Moon is Illuminated
Dec 30
Waning Crescent
Jan 1
New
Jan 7
First Quarter
Jan 15
Full
Jan 23
Last Quarter

Hourly Weather History & Observations

Time (CST) Temp. Windchill Dew Point Humidity Pressure Visibility Wind Dir Wind Speed Gust Speed Precip Events Conditions
12:58 AM 22.3 °F 16.1 °F 11.1 °F 62% 30.34 in 10.0 mi NNW 4.6 mph - N/A   Clear
1:58 AM 21.4 °F - 12.2 °F 68% 30.32 in 10.0 mi North 2.3 mph - N/A   Clear
2:58 AM 18.5 °F 13.3 °F 15.1 °F 86% 30.32 in 10.0 mi NNW 3.5 mph - N/A   Clear
3:58 AM 18.3 °F - 14.0 °F 83% 30.32 in 10.0 mi North 1.2 mph - N/A   Clear
4:58 AM 16.0 °F 8.8 °F 13.3 °F 89% 30.31 in 10.0 mi NNW 4.6 mph - N/A   Clear
5:58 AM 18.3 °F - 14.0 °F 83% 30.28 in 10.0 mi Calm Calm - N/A   Clear
6:58 AM 15.8 °F - 14.0 °F 93% 30.30 in 10.0 mi Calm Calm - N/A   Clear
7:58 AM 13.8 °F 4.9 °F 12.2 °F 93% 30.31 in 10.0 mi SE 5.8 mph - N/A   Clear
8:58 AM 22.1 °F 15.9 °F 16.7 °F 80% 30.32 in 10.0 mi SE 4.6 mph - N/A   Clear
9:58 AM 25.7 °F 19.0 °F 15.3 °F 65% 30.36 in 10.0 mi South 5.8 mph - N/A   Clear
10:58 AM 29.7 °F 24.7 °F 14.4 °F 53% 30.35 in 10.0 mi South 4.6 mph - N/A   Clear
11:58 AM 34.5 °F 29.4 °F 16.0 °F 47% 30.31 in 10.0 mi SW 5.8 mph - N/A   Clear
12:58 PM 37.8 °F 31.8 °F 17.2 °F 43% 30.29 in 10.0 mi SSW 8.1 mph - N/A   Clear
1:58 PM 40.1 °F - 18.3 °F 42% 30.28 in 10.0 mi Variable 1.2 mph - N/A   Clear
2:58 PM 42.6 °F 39.0 °F 19.6 °F 40% 30.28 in 10.0 mi WNW 5.8 mph - N/A   Clear
3:58 PM 44.1 °F 41.5 °F 20.8 °F 40% 30.29 in 10.0 mi North 4.6 mph - N/A   Clear
4:58 PM 43.7 °F - 21.0 °F 41% 30.31 in 10.0 mi Calm Calm - N/A   Clear
5:58 PM 37.6 °F 34.0 °F 21.6 °F 52% 30.33 in 10.0 mi South 4.6 mph - N/A   Clear
6:58 PM 32.7 °F 28.3 °F 21.7 °F 64% 30.36 in 10.0 mi South 4.6 mph - N/A   Clear
7:58 PM 30.2 °F - 20.7 °F 68% 30.40 in 10.0 mi South 2.3 mph - N/A   Clear
8:18 PM 26.6 °F - 19.4 °F 74% 30.35 in 9.0 mi Calm Calm - N/A   Clear
8:23 PM 26.6 °F - 19.4 °F 74% 30.35 in 10.0 mi Calm Calm - N/A   Clear
8:58 PM 24.8 °F - 19.4 °F 80% 30.41 in 10.0 mi Calm Calm - N/A   Clear
9:58 PM 29.1 °F - 21.7 °F 74% 30.43 in 10.0 mi Calm Calm - N/A   Clear
10:58 PM 22.8 °F 16.7 °F 19.0 °F 85% 30.44 in 10.0 mi NNW 4.6 mph - N/A   Clear
11:58 PM 26.1 °F - 21.2 °F 82% 30.43 in 10.0 mi NW 2.3 mph - N/A   Clear